Regional Weather Roundup
Issued by NWS

Home | Current Version | Previous Version | Text Only | Print | Product List | Glossary Off
Versions: 1 2 3 4 5 6 7 8 9 10 11 12 13 14 15 16 17 18 19 20 21 22 23 24 25 26 27 28 29 30 31 32 33 34 35 36 37 38 39 40 41 42 43 44 45 46 47 48 49 50

000
ASUS43 KFSD 030102
RWRSD

WEATHER ROUNDUP FOR SOUTH DAKOTA
NATIONAL WEATHER SERVICE SIOUX FALLS SD
800 PM CDT TUE SEP 02 2014

NOTE: "FAIR" INDICATES FEW OR NO CLOUDS BELOW 12,000 FEET WITH NO
SIGNIFICANT WEATHER AND/OR OBSTRUCTIONS TO VISIBILITY.


SDZ001>005-009-010-012>017-030200-
NORTHWEST AND NORTH CENTRAL SOUTH DAKOTA

CITY           SKY/WX    TMP DP  RH WIND       PRES   REMARKS
BUFFALO          N/A     71  50  47 NE9       29.73F
FAITH            N/A     74  51  44 SE8       29.78F
MOBRIDGE       MOCLDY    73  60  63 NW6       29.73F
$$

SDZ012>016-024>037-041>051-057-063-072>074-030200-
SOUTHWEST AND SOUTH CENTRAL SOUTH DAKOTA

CITY           SKY/WX    TMP DP  RH WIND       PRES   REMARKS
RAPID CTY ARPT CLEAR     71  53  52 E8        29.80F
PIERRE         PTCLDY    74  53  48 SE8       29.75F
CUSTER         CLEAR     70  34  26 VRB3      29.94F
ELLSWORTH AFB  CLEAR     75  50  41 SE10      29.81F
PHILIP         CLEAR     78  48  34 SW6       29.77F
PINE RIDGE     CLEAR     75  52  44 E5        29.83F
WINNER         FAIR      76  56  49 SE9       29.80F
$$

SDZ004>011-016>023-039-040-030200-
NORTHEAST SOUTH DAKOTA

CITY           SKY/WX    TMP DP  RH WIND       PRES   REMARKS
ABERDEEN       MOCLDY    66  58  75 S8        29.76F
WATERTOWN      CLEAR     67  56  67 S9        29.84F
SISSETON         N/A     69  56  62 SW9       29.78F
$$

SDZ017-020-022-023-036>040-048>070-030200-
SOUTHEAST SOUTH DAKOTA

CITY           SKY/WX    TMP DP  RH WIND       PRES   REMARKS
SIOUX FALLS    MOCLDY    69  57  65 S7        29.88F
HURON          MOCLDY    73  54  51 S8        29.81F
CHAMBERLAIN    CLEAR     70  57  63 SE7       29.80F
MITCHELL       CLEAR     71  58  63 S8        29.84F
YANKTON        CLEAR     72  61  68 S7        29.88S
$$

ABBREVIATIONS USED IN REMARKS
   TC - TEMPERATURE IN CELSIUS
  WCI - WIND CHILL INDEX
   HX - HEAT INDEX
  VSB - VISIBILITY



USA.gov is the U.S. government's official web portal to all federal, state and local government web resources and services.